Location: Csohesd
(46.2500°N, 22.6167°E)
Time: 11:45:29
(UTC+00:00)

USA 229 DEB - Pass Details

Date: 21 October 2021
Orbit: 944 x 1268 km, 63.4° (Epoch: 25 November)

Event Time Altitude Azimuth Distance (km) Brightness Sun altitude
Rises 17:49:26 0° 210° (SSW) 3,620 6.7 -24.3°
Reaches altitude 10° 17:51:55 10° 209° (SSW) 2,699 6.0 -24.7°
Maximum altitude 17:58:12 76° 125° (SE) 1,041 3.4 -25.8°
Enters shadow 18:00:05 49° 53° (NE) 1,296 3.8 -26.1°
